Location: NCO
(38.4212°N, 77.1417°W)
Time: 00:28:41
(UTC-04:00)

Envisat - Visible Passes

Search period start: 20 May 2026 00:00
Search period end: 30 May 2026 00:00
Orbit: 761 x 762 km, 98.4° (Epoch: 19 May)

Date Brightness Start Highest point End Pass type
(mag) Time Alt. Az. Time Alt. Az. Time Alt. Az.
20 May 3.4 03:26:45 10° NNE 03:31:44 56° E 03:33:46 33° SSE visible
20 May 4.7 05:07:03 10° NNW 05:10:10 17° WNW 05:13:17 10° WSW visible
21 May 4.7 02:49:41 10° NE 02:53:45 24° E 02:55:32 20° SE visible
21 May 3.7 04:28:06 10° N 04:32:42 36° WNW 04:35:40 19° SW visible
22 May 2.9 03:49:57 10° NNE 03:55:03 85° WNW 03:57:27 32° SSW visible
23 May 4.0 03:12:25 10° NNE 03:17:11 40° E 03:19:13 28° SE visible
23 May 4.4 04:51:57 10° NNW 04:55:49 22° WNW 04:59:20 11° WSW visible
24 May 5.1 02:35:49 10° NE 02:39:06 17° E 02:40:59 14° ESE visible
24 May 3.3 04:13:23 10° N 04:18:16 50° WNW 04:21:06 24° SW visible
25 May 3.1 03:35:28 10° NNE 03:40:32 70° ESE 03:42:52 32° S visible
25 May 4.9 05:16:22 10° NNW 05:18:49 14° WNW 05:21:17 10° W visible
26 May 4.5 02:58:12 10° NE 03:02:35 29° E 03:04:38 22° SE visible
26 May 4.0 04:37:03 10° N 04:41:25 30° WNW 04:44:46 15° WSW visible
27 May 5.4 02:22:29 10° ENE 02:24:26 12° E 02:26:21 10° ESE visible
27 May 3.0 03:58:46 10° N 04:03:48 70° WNW 04:06:32 27° SSW visible
28 May 3.6 03:21:04 10° NNE 03:25:59 49° E 03:28:17 29° SSE visible
28 May 4.6 05:01:03 10° NNW 05:04:30 19° WNW 05:07:55 10° WSW visible
29 May 4.9 02:44:09 10° NE 02:47:58 21° E 02:50:03 17° SE visible
29 May 3.6 04:22:16 10° N 04:27:00 41° WNW 04:30:11 19° SW visible
